SCP
0 0 0 0 0 0 0 0 0 0 0 0 0 0 0 0 0 0 0 0 0 0 0 0 0 0 0 0 0 0 0 0 0 0 0 0 0 0 0 0 0 0 0 0
0 0 0 0 0 0 0 0 0 0 0 0 0 0 0 0 0 0 0 0 0 0 0 0 0 0 0 0 0 0 0 0 0 0 0 0 0 0 0 0 0 0 0 0
0 0 0 0 0 0 0 0 0 0 0 0 0 0 0 0 0 0 0 0 0 0 0 0 0 0 0 0 0 0 0 0 0 0 0 0 0 0 0 0 0 0 0 0
0 0 0 0 0 0 0 0 0 0 0 0 0 0 0 0 0 0 0 0 0 0 0 0 0 0 0 0 0 0 0 0 0 0 0 0 0 0 0 0 0 0 0 0
0 0 0 0 0 0 0 0 0 0 0 0 0 0 0 0 0 0 0 0 0 0 0 0 0 0 0 0 0 0 0 0 0 0 0 0 0 0 0 0 0 0 0 0
0 0 0 0 0 0 0 0 0 0 0 0 0 0 0 0 0 0 0 0 0 0 0 0 0 0 0 0 0 0 0 0 0 0 0 0 0 0 0 0 0 0 0 0
0 0 0 0 0 0 0 0 0 0 0 0 0 0 0 0 0 0 0 0 0 0 0 0 0 0 0 0 0 0 0 0 0 0 0 0 0 0 0 0 0 0 0 0
0 0 0 0 0 0 0 0 0 0 0 0 0 0 0 0 0 0 0 0 0 0 0 0 0 0 0 0 0 0 0 0 0 0 0 0 0 0 0 0 0 0 0 0
0 0 0 0 0 0 0 0 0 0 -0 -0 -0 0 0 0 0 0 0 0 0 0 0 0 0 0 0 0 0 0 0 0 0 0 0 0 0 0 0 0 0 0 0 -0
0 0 0 0 0 0 0 0 0 0 0 -0 -0 -0 -0 0 0 0 0 0 0 0 0 0 0 0 0 0 0 0 0 0 0 0 0 0 0 0 0 0 0 0 0 0
0 0 0 0 0 0 0 0 0 0 0 0 -0 -0 -0 -0 0 0 0 0 0 0 0 0 0 0 0 0 0 0 0 0 0 0 0 0 0 0 0 0 0 0 0 0
0 0 0 0 0 0 0 0 0 0 0 0 0 -0 -0 -0 0 0 0 0 0 0 0 0 0 0 0 0 0 0 0 0 0 0 0 0 0 0 0 0 0 0 0 0
0 0 0 0 0 0 0 0 0 0 0 0 0 0 0 0 0 0 0 0 0 0 0 0 0 0 0 0 0 0 0 0 0 0 0 0 0 0 0 0 0 0 0 0
0 0 0 0 0 0 0 0 0 0 0 0 0 0 0 0 0 0 0 0 0 0 0 0 0 0 0 0 0 0 0 0 0 0 0 0 0 0 0 0 0 0 0 0
0 0 0 0 0 0 0 0 0 0 0 0 0 0 0 0 0 0 0 0 0 0 0 0 0 0 0 0 0 0 0 0 0 0 0 0 0 0 0 0 0 0 0 0
0 0 0 0 0 0 0 0 0 0 0 0 0 0 0 0 0 0 0 0 0 0 0 0 0 0 0 0 0 0 0 0 0 0 0 0 0 0 0 0 0 0 0 0
0 0 0 0 0 0 0 0 0 0 0 0 0 0 0 0 0 0 0 0 0 0 0 0 0 0 0 0 0 0 0 0 0 0 0 0 0 0 0 0 0 0 0 0
0 0 0 0 0 0 0 0 0 0 0 0 0 0 0 0 0 0 0 0 0 0 0 0 0 0 0 0 0 0 0 0 0 0 0 0 0 0 0 0 0 0 0 0
0 0 0 0 0 0 0 0 0 0 0 0 0 0 0 0 0 0 0 0 0 0 0 0 0 0 0 0 0 0 0 0 0 0 0 0 0 0 0 0 0 0 0 0
0 0 0 0 0 0 0 0 0 0 0 0 0 0 0 0 0 0 0 0 0 0 0 0 0 0 0 0 0 0 0 0 0 0 0 0 0 0 0 0 0 0 0 0
0 0 0 0 0 0 0 0 0 0 0 0 0 0 0 0 0 0 0 0 0 0 0 0 0 0 0 0 0 0 0 0 0 0 0 0 0 0 0 0 0 0 0 0
0 0 0 0 0 0 0 0 0 0 0 0 0 0 0 0 0 0 0 0 0 0 0 0 0 0 0 0 0 0 0 0 0 0 0 0 0 0 0 0 0 0 0 0
0 0 0 0 0 0 0 0 0 0 0 0 0 0 0 0 0 0 0 0 0 0 0 0 0 0 0 0 0 0 0 0 0 0 0 0 0 0 0 0 0 0 0 0
0 0 0 0 0 0 0 0 0 0 0 0 0 0 0 0 0 0 0 0 0 0 0 0 0 0 0 0 0 0 0 0 0 0 0 0 0 0 0 0 0 0 0 0
0 0 0 0 0 0 0 0 0 0 0 -0 0 0 0 0 0 0 0 0 0 0 0 0 0 0 0 0 0 0 0 0 0 0 0 0 0 0 0 0 0 0 0 0
0 0 0 0 0 0 0 0 0 0 0 0 0 0 0 0 0 0 0 0 0 0 0 0 0 0 0 0 0 0 0 0 0 0 0 0 0 0 0 0 0 0 0 0
0 0 0 0 0 0 0 0 0 0 0 0 0 0 0 0 0 0 0 0 0 0 0 0 0 0 0 0 0 0 0 0 0 0 0 0 0 0 0 0 0 0 0 0
Wind_Speed
5 5 2 3 4 4 5 6 6 6 5 6 5 4 3 3 4 4 4 4 5 5 4 4 4 4 4 4 3 3 3 3 2 2 2 2 2 2 2 3 3 2 3 3
3 2 1 2 3 3 3 3 4 3 5 3 0 2 2 3 4 4 4 4 5 5 5 5 5 5 4 3 3 3 3 3 2 2 2 2 2 2 3 3 3 3 3 3
3 3 2 4 4 3 3 3 4 5 5 1 0 2 3 4 5 5 4 4 6 6 6 5 5 5 4 3 3 3 3 2 2 2 2 1 1 2 3 3 3 3 3 3
1 2 4 6 2 3 2 2 3 2 1 2 2 1 0 2 4 5 5 4 5 6 6 4 3 4 4 4 4 3 3 2 2 2 2 1 2 2 2 1 2 2 2 3
2 2 6 5 2 3 3 3 2 3 2 2 2 3 2 1 2 4 4 4 4 5 5 5 5 4 5 4 4 3 2 2 2 2 2 1 2 1 1 1 2 2 2 3
3 2 5 6 2 2 3 4 2 4 4 3 3 1 2 1 2 4 4 4 4 4 5 5 4 5 5 4 4 3 2 2 1 2 2 1 1 1 1 1 1 2 2 3
4 4 7 5 1 3 2 6 2 4 4 5 4 3 2 3 3 4 4 4 5 5 5 4 4 5 5 4 3 2 2 2 2 2 1 1 1 1 1 2 2 3 3 3
4 3 8 2 4 5 6 2 2 4 4 4 3 3 4 4 4 5 5 5 5 5 4 4 4 5 5 3 2 2 2 2 2 2 1 2 2 2 1 2 2 2 2 3
8 8 5 2 4 2 3 3 3 4 4 6 5 4 4 4 5 4 4 4 4 5 5 3 3 4 4 2 2 3 3 2 2 2 2 2 2 2 1 1 1 1 1 2
3 5 3 2 1 1 2 3 3 4 6 6 5 5 5 5 4 4 4 4 4 5 4 3 3 3 3 3 3 3 3 2 2 2 2 1 1 1 0 0 0 0 1 1
3 3 1 1 2 3 3 4 5 5 4 6 7 5 5 4 5 4 3 3 4 4 4 3 3 2 2 3 4 3 2 2 1 1 1 1 1 1 1 2 2 2 2 2
7 7 6 5 5 5 6 5 6 6 4 4 5 6 5 5 4 4 4 4 4 4 3 3 3 2 2 3 4 4 2 1 1 1 1 1 1 2 2 2 3 3 5 4
6 4 4 4 5 6 6 6 6 6 6 5 4 5 5 4 4 4 4 4 5 4 4 3 3 2 2 3 4 4 3 2 1 1 1 0 0 1 2 3 2 2 3 4
5 6 4 4 5 6 6 6 5 5 4 5 5 5 5 4 4 5 5 5 4 4 4 3 3 2 2 3 4 3 3 2 2 1 1 1 1 2 1 2 3 3 2 2
6 5 6 6 6 6 5 6 6 5 5 4 4 5 6 6 5 5 4 4 4 4 3 3 3 3 2 4 4 3 2 1 1 1 1 1 1 2 1 2 2 3 3 3
5 6 8 9 8 7 6 7 7 6 6 5 5 5 5 6 5 4 4 5 5 4 4 4 4 3 3 4 4 2 2 3 2 1 1 1 1 1 2 2 2 3 3 3
10 8 8 9 9 8 7 7 8 7 7 7 6 6 5 5 4 4 4 4 5 4 4 4 4 3 4 5 4 3 2 2 2 1 1 2 2 2 2 2 3 3 4 4
11 12 12 13 11 9 8 7 7 7 7 7 7 6 6 6 6 5 5 4 3 2 3 4 4 3 3 4 4 3 3 2 2 2 2 2 2 3 3 3 3 4 4 4
8 9 10 10 10 10 9 8 7 7 6 7 7 7 6 6 6 5 5 5 5 4 4 4 5 4 3 4 4 3 3 3 2 2 2 3 3 3 3 3 4 4 4 4
9 9 9 9 9 8 8 7 7 6 6 7 7 6 5 5 5 5 5 5 5 5 4 4 4 4 4 4 5 3 3 3 3 3 2 3 3 4 4 4 4 4 4 4
11 10 10 9 8 8 8 8 8 8 7 8 8 8 7 5 5 5 5 4 4 4 4 5 4 4 4 4 5 3 4 4 3 3 3 3 4 4 4 4 4 4 4 5
10 10 10 9 9 7 7 7 7 8 7 7 7 6 6 5 5 5 5 5 4 5 4 4 4 5 5 5 3 4 4 4 4 4 4 4 4 5 5 5 5 5 5 5
9 9 10 10 10 8 7 7 7 8 8 8 8 7 7 6 5 5 5 4 4 6 5 4 5 7 7 4 4 4 5 5 5 5 5 5 5 5 5 6 6 5 5 6
8 9 9 8 8 8 7 7 7 6 7 7 7 7 7 5 4 5 4 4 6 7 5 6 8 8 7 4 4 4 5 5 5 5 5 5 5 5 6 6 6 6 6 7
9 8 8 9 8 7 7 6 6 5 5 4 4 5 5 5 5 4 4 5 7 7 5 6 8 8 6 4 5 5 5 6 6 5 5 6 6 6 6 6 7 7 7 7
8 8 7 7 7 6 6 6 5 4 4 4 3 3 3 3 4 3 3 5 6 6 5 4 5 6 5 5 6 6 6 6 6 6 7 7 7 7 7 7 9 7 7 7
7 6 5 4 4 5 6 6 6 5 6 5 4 4 4 4 4 4 4 4 4 5 5 4 4 5 5 5 6 6 6 6 6 6 7 7 7 7 7 9 8 7 7 7
Wind_Direction
245 253 225 233 253 205 193 202 204 239 244 261 237 217 210 183 161 154 157 160 156 151 146 139 134 133 133 139 138 136 128 117 111 98 74 59 47 36 27 21 20 16 23 20
299 282 256 269 272 233 222 221 228 253 268 271 215 139 171 179 169 171 179 172 158 151 150 151 147 146 141 142 137 128 125 127 117 99 79 59 42 43 41 29 19 24 23 22
262 294 335 281 250 218 219 222 196 223 245 199 245 207 199 196 189 186 186 171 159 155 156 156 154 151 147 146 135 126 126 124 116 108 90 67 50 52 46 26 24 20 9 16
218 353 253 249 243 192 205 245 213 214 226 191 201 214 215 183 183 178 168 162 158 154 150 146 144 139 136 132 126 124 124 122 112 116 104 70 57 48 35 26 21 10 8 13
138 226 277 284 244 181 185 271 220 182 162 130 104 61 8 37 146 156 158 158 156 153 148 144 146 144 133 124 121 121 121 117 113 127 124 92 64 44 27 34 17 7 5 12
146 196 246 253 249 160 112 282 235 166 168 160 125 109 268 160 123 119 117 123 129 126 125 133 140 137 130 132 130 133 134 130 126 131 136 118 86 48 30 41 24 19 16 9
180 223 260 258 209 117 162 249 214 165 169 164 172 197 191 133 123 118 114 117 122 123 128 138 139 132 131 134 145 155 139 127 117 115 129 126 90 72 68 51 43 35 23 5
168 208 255 238 141 177 216 220 157 160 161 151 139 121 115 117 123 121 115 117 125 125 123 126 132 128 127 145 155 135 124 115 100 83 91 102 97 74 65 66 50 31 21 8
190 212 237 222 199 201 162 161 168 160 150 140 135 134 123 123 125 127 126 127 125 126 123 119 126 133 141 160 143 130 118 113 96 72 74 97 110 102 61 52 53 18 13 6
228 258 248 232 193 152 161 167 155 148 144 143 142 141 134 133 131 132 129 134 128 129 132 136 140 148 160 153 139 133 134 127 108 97 72 61 74 109 139 239 276 313 322 327
235 251 217 254 201 164 128 116 115 119 132 144 137 139 145 147 147 149 141 140 140 144 149 154 151 154 155 148 141 137 137 129 114 109 103 60 25 334 249 242 216 217 238 243
216 208 184 211 195 159 144 146 142 132 126 133 142 145 143 149 153 152 149 143 143 147 152 156 152 158 163 157 150 146 142 140 136 127 105 85 20 347 341 265 276 249 235 237
208 184 173 174 162 159 156 155 151 148 149 144 145 146 143 141 147 150 151 154 161 165 165 161 157 166 171 158 152 154 163 169 160 158 170 221 257 288 320 337 333 286 266 260
167 132 135 166 171 163 151 147 138 130 134 139 144 142 139 131 139 153 167 173 165 159 161 165 167 191 187 157 152 156 162 174 179 199 211 224 239 257 258 281 310 316 307 285
188 170 163 152 138 135 134 134 135 139 138 136 142 148 150 151 162 174 171 156 146 151 165 170 178 205 181 157 157 162 167 184 194 209 222 232 246 260 264 263 270 285 303 311
155 131 134 142 151 150 149 153 158 165 160 158 160 165 166 163 162 159 154 152 154 173 184 182 195 202 172 161 162 168 190 207 204 200 231 262 260 262 268 271 276 278 282 285
145 152 157 162 166 169 172 173 172 170 167 169 174 167 153 145 145 158 169 173 176 184 187 190 204 200 173 171 175 187 199 206 202 202 232 253 265 268 267 265 268 274 272 264
176 174 171 170 172 173 176 173 169 168 172 174 163 154 156 164 175 185 182 167 161 175 202 203 203 190 181 182 186 193 195 202 207 223 245 259 270 270 271 272 274 275 280 278
167 165 167 170 172 171 171 171 172 171 166 159 160 168 177 184 185 182 168 162 175 202 224 210 192 187 192 199 191 191 197 208 224 236 244 260 272 274 272 273 274 273 275 276
164 164 164 166 166 164 168 168 164 163 164 161 161 166 176 188 182 173 169 186 206 209 203 191 184 192 202 206 196 193 203 213 225 236 245 255 265 275 277 276 277 277 273 269
167 165 164 163 165 169 169 164 163 167 167 164 169 179 186 188 177 169 173 211 234 208 193 191 192 201 205 202 195 198 207 217 227 234 243 253 264 272 277 280 281 277 273 272
165 166 167 164 162 165 167 164 165 165 164 171 177 176 174 180 179 180 199 212 217 193 186 195 203 210 209 201 200 208 220 228 235 239 243 249 255 265 273 277 278 279 275 271
161 164 164 166 167 165 159 162 166 166 172 179 181 181 184 187 181 182 215 220 199 196 195 206 210 212 211 205 208 216 224 231 237 241 245 247 250 256 263 270 272 273 275 274
155 159 162 158 149 148 161 174 171 173 178 182 187 185 178 178 196 210 210 202 198 198 206 213 214 215 207 208 214 222 228 234 240 245 248 250 253 255 259 264 270 272 269 269
152 150 147 147 155 169 174 165 160 164 167 177 187 187 185 185 193 203 194 196 198 198 212 219 217 214 210 215 221 228 234 237 241 243 246 251 257 260 262 263 262 265 267 268
148 154 160 168 168 165 161 160 166 172 170 177 191 192 190 188 188 185 189 198 199 204 212 218 212 209 213 220 226 233 238 244 247 246 248 251 257 260 264 266 267 265 264 265
137 138 138 137 146 156 159 164 170 177 178 180 191 196 190 186 185 192 196 201 202 208 216 218 215 213 219 225 232 237 240 243 246 249 252 254 256 258 262 264 267 266 266 268